Tracking 21676 objects as of 29-Oct-2020
HD Live streaming from Space Station
objects crossing your sky now

RADUGA 1-4

Track RADUGA 1-4 now!
RADUGA 1-4 is classified as:


NORAD ID: 25642
Int'l Code: 1999-010A
Perigee: 35,759.3 km
Apogee: 35,783.8 km
Inclination: 15.0 °
Period: 1,435.0 minutes
Semi major axis: 42142 km
RCS: 12.5893 m2 (large)
Launch date: February 28, 1999
Source: Commonwealth of Independent States (former USSR) (CIS)
Launch site: TYURATAM MISSILE AND SPACE COMPLEX (TTMTR)

Military communication.
aabbcc
Your satellite tracking list
Your tracking list is empty




NASA's NSSDC Master Catalog

Two Line Element Set (TLE):
1 25642U 99010A   20301.72432898 -.00000239 +00000-0 +00000-0 0  9992
2 25642 014.9540 019.0090 0002899 279.0083 086.2493 01.00350998079317
Source of the keplerian elements: AFSPC